Wellington, UT

3:39 AM MST on February 12, 2016 (GMT -0700)
Carbon County

Weather History for KPUC - November, 2013

Change the Weather History Date:

Saturday, November 2, 2013

  Actual Average Record
Temperature  
Mean Temperature 40 °F -  
Max Temperature 53 °F 49 °F 66 °F (1976)
Min Temperature 28 °F 28 °F 13 °F (1971)
Degree Days  
Heating Degree Days 24    
Moisture  
Dew Point 27 °F    
Average Humidity 60    
Maximum Humidity 82    
Minimum Humidity 38    
Precipitation  
Precipitation 0.00 in - - ()
Sea Level Pressure  
Sea Level Pressure 30.18 in    
Wind  
Wind Speed 4 mph (ENE)    
Max Wind Speed 7 mph    
Max Gust Speed -    
Visibility 10 miles    
Events      
Averages and records for this station are not official NWS values.
T = Trace of Precipitation, MM = Missing Value Source: NWS Daily Summary

Daily Weather History Graph

Daily Weather History Graph

Search for Another Location

Airport or City:

Trip Planner

Search our weather history database for the weather conditions in past years. The results will help you decide how hot, cold, wet, or windy it might be!

Date:

Astronomy

Nov. 02, 2013 Rise Set
Actual Time 7:52 AM MDT 6:19 PM MDT
Civil Twilight 7:24 AM MDT 6:47 PM MDT
Nautical Twilight 6:52 AM MDT 7:19 PM MDT
Astronomical Twilight 6:21 AM MDT 7:50 PM MDT
Moon 6:54 AM MDT (11/2) 5:53 PM MDT (11/2)
Length of Visible Light 11h 22m
Length of Day
10h 26m
Waning Crescent, 1% of the Moon is Illuminated
Nov 2
Waning Crescent
Nov 3
New
Nov 9
First Quarter
Nov 17
Full
Nov 25
Last Quarter

Hourly Weather History & Observations

Time (MDT) Temp. Windchill Dew Point Humidity Pressure Visibility Wind Dir Wind Speed Gust Speed Precip Events Conditions
12:53 AM 35.1 °F 31.0 °F 26.1 °F 70% 30.31 in 10.0 mi NE 4.6 mph - N/A   Clear
1:53 AM 34.0 °F 31.0 °F 26.1 °F 73% 30.30 in 10.0 mi NE 3.5 mph - N/A   Clear
2:53 AM 34.0 °F 29.8 °F 26.1 °F 73% 30.29 in 10.0 mi NNE 4.6 mph - N/A   Clear
3:53 AM 34.0 °F 29.8 °F 25.0 °F 70% 30.27 in 10.0 mi North 4.6 mph - N/A   Clear
4:53 AM 32.0 °F 26.4 °F 25.0 °F 75% 30.28 in 10.0 mi NNE 5.8 mph - N/A   Clear
5:53 AM 30.9 °F - 24.1 °F 76% 30.30 in 10.0 mi Calm Calm - N/A   Clear
6:53 AM 30.0 °F - 24.1 °F 79% 30.30 in 10.0 mi Calm Calm - N/A   Clear
7:53 AM 28.9 °F 25.2 °F 24.1 °F 82% 30.33 in 10.0 mi NE 3.5 mph - N/A   Clear
8:53 AM 37.9 °F - 28.0 °F 68% 30.31 in 10.0 mi Calm Calm - N/A   Clear
9:53 AM 41.0 °F - 28.9 °F 62% 30.31 in 10.0 mi Calm Calm - N/A   Clear
10:53 AM 45.0 °F 41.8 °F 28.0 °F 52% 30.29 in 10.0 mi ESE 5.8 mph - N/A   Clear
11:53 AM 48.0 °F - 28.0 °F 46% 30.23 in 10.0 mi SE 5.8 mph - N/A   Clear
12:53 PM 50.0 °F - 28.9 °F 44% 30.22 in 10.0 mi SE 6.9 mph - N/A   Clear
1:53 PM 51.1 °F - 28.9 °F 43% 30.16 in 10.0 mi Variable 6.9 mph - N/A   Clear
2:53 PM 51.1 °F - 27.0 °F 39% 30.12 in 10.0 mi South 6.9 mph - N/A   Clear
3:53 PM 53.1 °F - 28.0 °F 38% 30.08 in 10.0 mi SSE 6.9 mph - N/A   Clear
4:53 PM 52.0 °F - 27.0 °F 38% 30.06 in 10.0 mi Calm Calm - N/A   Clear
5:53 PM 50.0 °F - 28.0 °F 43% 30.04 in 10.0 mi ESE 6.9 mph - N/A   Clear
6:53 PM 45.0 °F 41.8 °F 28.0 °F 52% 30.05 in 10.0 mi East 5.8 mph - N/A   Clear
7:53 PM 44.1 °F 40.8 °F 27.0 °F 51% 30.06 in 10.0 mi ENE 5.8 mph - N/A   Clear
8:53 PM 39.0 °F 34.0 °F 27.0 °F 62% 30.03 in 10.0 mi NE 6.9 mph - N/A   Clear
9:53 PM 37.0 °F 32.4 °F 26.1 °F 65% 30.01 in 10.0 mi NE 5.8 mph - N/A   Clear
10:53 PM 36.0 °F 31.1 °F 26.1 °F 67% 29.98 in 10.0 mi NE 5.8 mph - N/A   Clear
11:53 PM 36.0 °F 30.3 °F 26.1 °F 67% 29.95 in 10.0 mi NNE 6.9 mph - N/A   Clear